This is the latest recevied weather packets stored in our database for station/object F4FEB-13. If no packets are shown the sender has not sent any weather packets the latest 10 day(s).
| Time | Temp. | Humidity | Pressure | Rain* | Wind** | Luminosity | Snow |
|---|---|---|---|---|---|---|---|
| 1778257148 | 17.78° C | 52% | 1013.2 hPa | 0 mm | - | - | - |
| 1778256848 | 17.78° C | 51% | 1013.1 hPa | 0 mm | - | - | - |
| 1778256548 | 17.78° C | 51% | 1013.1 hPa | 0 mm | - | - | - |
| 1778256248 | 17.22° C | 55% | 1013.1 hPa | 0 mm | - | - | - |
| 1778255948 | 16.67° C | 62% | 1013.1 hPa | 0 mm | - | - | - |
| 1778255648 | 17.22° C | 58% | 1013.2 hPa | 0 mm | - | - | - |
| 1778255348 | 17.78° C | 54% | 1013.1 hPa | 0 mm | - | - | - |
| 1778255048 | 18.33° C | 53% | 1013.1 hPa | 0 mm | - | - | - |
| 1778254748 | 18.33° C | 52% | 1013.1 hPa | 0 mm | - | - | - |
| 1778254448 | 18.33° C | 51% | 1013.1 hPa | 0 mm | - | - | - |
| 1778254148 | 18.33° C | 51% | 1013 hPa | 0 mm | - | - | - |
| 1778253848 | 18.33° C | 52% | 1013 hPa | 0 mm | - | - | - |
| 1778253548 | 18.89° C | 49% | 1013.1 hPa | 0 mm | - | - | - |
| 1778253248 | 19.44° C | 50% | 1013.1 hPa | 0 mm | - | - | - |
| 1778252948 | 19.44° C | 49% | 1013.1 hPa | 0 mm | - | - | - |
| 1778252648 | 19.44° C | 49% | 1013.1 hPa | 0 mm | - | - | - |
| 1778252348 | 18.89° C | 51% | 1013 hPa | 0 mm | - | - | - |
| 1778252048 | 18.89° C | 50% | 1013.1 hPa | 0 mm | - | - | - |
| 1778251748 | 18.89° C | 52% | 1013.2 hPa | 0 mm | - | - | - |
| 1778251449 | 18.89° C | 47% | 1013.1 hPa | 0 mm | - | - | - |
| 1778251149 | 18.89° C | 53% | 1013.4 hPa | 0 mm | - | - | - |
| 1778250849 | 18.33° C | 48% | 1013.4 hPa | 0 mm | - | - | - |
| 1778250552 | 18.33° C | 50% | 1013.4 hPa | 0 mm | - | - | - |
| 1778250549 | 18.33° C | 50% | 1013.4 hPa | 0 mm | - | - | - |
| 1778250249 | 17.78° C | 52% | 1013.5 hPa | 0 mm | - | - | - |
* Rain latest hour (hover to see other rain measurements)
** Current wind speed in m/s (hover to see current wind gust speed)